Flag for Colombia Weather past 2 weeks in San Juan de Pasto, Colombia

52 °F

Passing clouds.

Feels Like: 50 °F
Forecast: 51 / 63 °F
Wind: 6 mph from South

Location: Latacunga Airport

Current Time: Oct 10, 2015 at 5:07:34 AM

Latest Report: Oct 10, 2015 at 4:00 AM

Visibility: N/A

Pressure: 30.36 "Hg (22.38 "Hg at 2535m altitude)

Humidity: 100%

Dew point: 52 °F

Location of San Juan de PastoLocation

Historic Weather in San Juan de Pasto — Graph


San Juan de Pasto temperature yesterday

Maximum temperature yesterday: 70 °F (at 1:00 PM)
Minimum temperature yesterday: 50 °F (at 1:00 AM)
Average temperature yesterday: 58 °F

Past Weeks' High & Low Weather Summary

High73 °F (Oct 2, 2:00 PM)100% (Sep 25, 4:00 AM)32.81 "Hg (Sep 25, 4:00 AM)
Low36 °F (Oct 8, 5:00 AM)33% (Sep 29, 2:00 PM)30.21 "Hg (Oct 2, 3:00 PM)
Average56 °F80%30.40 "Hg
* Reported Sep 25 4:00 AM — Oct 10 4:00 AM, San Juan de Pasto, Weather by CustomWeather, © 2015

Note: Actual official high and low records may vary slightly from our data, if they occured in-between our weather recording intervals... More about our weather records


San Juan de Pasto weather history for previous 24 hours

Time TempWeatherWind HumidityBarometerVisibility
4:00 AM
Sat, Oct 10
52 °FPassing clouds.6 mph100%30.36 "HgN/A
3:00 AMN/APassing clouds.5 mphN/A32.81 "HgN/A
2:00 AM54 °FPassing clouds.7 mph100%30.39 "HgN/A
12:00 AM54 °FPassing clouds.3 mph100%30.45 "HgN/A
11:00 PM
Fri, Oct 9
54 °FPassing clouds.6 mph100%30.45 "HgN/A
10:00 PM55 °FPassing clouds.5 mph94%30.42 "HgN/A
9:00 PM50 °FPassing clouds.2 mph100%30.42 "HgN/A
8:00 PM55 °FPassing clouds.9 mph88%30.39 "HgN/A
7:00 PM61 °FPartly cloudy.3 mph72%30.36 "HgN/A
6:00 PM59 °FBroken clouds.9 mph77%30.30 "HgN/A
5:00 PM63 °FPartly sunny.9 mph64%30.30 "HgN/A
4:00 PM70 °FScattered clouds.22 mph50%30.24 "HgN/A
3:00 PM70 °FScattered clouds.22 mph50%30.27 "HgN/A
2:00 PM70 °FScattered clouds.20 mph50%30.30 "HgN/A
1:00 PM70 °FScattered clouds.18 mph46%30.36 "HgN/A
12:00 PM66 °FScattered clouds.17 mph49%30.39 "HgN/A
11:00 AM66 °FScattered clouds.15 mph52%30.42 "HgN/A
10:00 AM64 °FScattered clouds.12 mph56%30.45 "HgN/A
9:00 AM61 °FPassing clouds.5 mph72%30.45 "HgN/A
8:00 AM57 °FBroken clouds.3 mph82%30.45 "HgN/A
7:00 AM52 °FBroken clouds.3 mph94%30.45 "HgN/A
6:00 AM50 °FPartly sunny.1 mph100%30.42 "HgN/A
5:00 AM50 °FPartly cloudy.2 mph100%30.39 "HgN/A
Weather by CustomWeather, © 2015

See weather overviewHow to use our weather pages